Temperature
21 18 18 19 19 20 20 19 19 20 20 20 19 19 18 19 19 19 19 19 19 20 20 20 19 19 19 19 18 18 18 18 18 17 17 17 17 17 17 17 17 16 16 16
18 18 20 20 20 20 20 19 19 20 21 20 19 19 18 18 18 19 19 19 20 20 20 20 19 19 19 19 19 18 18 18 18 17 17 17 17 17 17 17 16 16 16 16
19 20 21 21 20 20 20 19 19 19 20 19 19 18 18 18 19 19 20 20 20 20 20 20 20 19 19 19 19 19 18 18 18 17 17 17 17 17 16 16 16 16 16 16
19 20 21 21 21 20 19 20 20 20 18 17 19 17 17 17 18 18 19 20 20 20 20 20 20 20 19 19 19 19 18 18 18 17 17 17 17 17 17 16 16 16 16 16
19 20 21 20 21 21 20 21 20 20 18 17 18 17 17 17 18 18 18 19 20 20 20 20 20 20 20 19 19 19 18 18 18 18 17 17 17 17 16 16 16 16 16 16
20 21 21 21 21 21 21 20 19 17 17 17 18 18 17 17 18 19 19 19 20 20 20 20 20 20 20 19 19 19 19 18 18 18 17 17 17 17 17 16 16 16 16 16
20 20 21 22 21 20 20 17 17 17 16 17 18 18 18 19 19 19 19 20 20 20 20 20 20 20 19 19 19 19 19 18 18 18 18 17 17 17 17 17 16 16 16 16
18 18 20 21 20 20 19 18 17 17 17 17 18 18 18 20 20 20 20 20 20 20 20 20 20 20 20 19 19 19 19 18 18 18 18 17 17 17 17 17 17 16 16 16
18 19 21 22 21 20 19 18 18 17 17 17 17 18 19 20 19 19 19 19 20 20 20 20 20 20 20 19 19 19 19 18 18 18 18 17 17 17 17 17 17 16 16 16
19 19 20 21 21 21 20 19 17 17 17 17 17 18 17 19 19 18 18 19 19 20 20 20 20 20 20 19 19 19 19 18 18 18 18 17 17 17 17 17 17 16 16 16
19 18 19 20 20 20 20 19 18 16 16 16 16 17 19 18 18 18 18 19 19 20 20 20 20 20 19 19 19 19 18 18 18 18 18 17 17 17 17 17 16 16 16 16
18 16 17 18 20 20 20 19 18 17 16 16 16 16 19 18 19 19 19 20 20 20 20 20 20 19 19 19 19 19 18 18 18 18 17 17 17 17 17 16 16 16 16 16
18 17 16 17 18 19 20 20 19 17 16 15 16 17 19 18 19 19 20 20 20 20 19 19 19 19 19 19 19 19 18 18 18 18 17 17 17 17 17 16 16 16 16 16
18 16 16 17 17 18 19 19 19 17 16 16 16 17 18 18 18 18 19 19 20 19 19 19 19 19 19 19 19 18 18 18 18 18 17 17 17 17 16 16 16 16 16 15
17 17 17 18 19 19 19 19 19 18 17 17 17 17 18 18 18 19 19 19 19 19 19 19 19 19 19 18 18 18 18 18 18 17 17 17 17 16 16 16 16 16 15 15
16 17 17 18 19 19 19 19 19 19 19 18 18 18 18 19 19 19 19 19 18 18 18 18 18 18 18 18 18 18 18 18 17 17 17 17 16 16 16 16 16 15 15 15
16 16 16 16 17 18 18 19 19 19 19 18 18 18 18 18 18 18 18 18 18 18 18 18 18 18 18 18 18 18 18 17 17 17 17 16 16 16 16 15 15 15 15 15
16 15 14 15 17 17 18 19 19 19 19 18 18 18 18 18 19 19 19 19 18 18 18 18 18 18 18 18 18 18 17 17 17 17 16 16 16 16 15 15 15 15 15 14
16 16 14 14 15 16 18 19 19 19 18 18 18 18 18 18 18 17 18 18 18 18 18 18 18 18 18 17 17 17 17 17 17 16 16 16 16 15 15 15 15 14 14 14
15 15 15 14 16 16 17 19 20 19 17 18 18 17 17 17 15 16 18 18 18 18 18 18 18 17 17 17 17 17 17 17 16 16 16 16 16 15 15 15 14 14 14 14
16 15 14 14 15 16 17 19 19 18 17 18 18 18 18 17 17 18 18 17 17 17 17 17 17 17 17 17 17 17 16 16 16 16 16 16 15 15 15 14 14 14 13 13
15 15 14 14 15 16 18 18 17 17 18 18 18 18 18 18 18 17 17 17 17 17 17 17 17 17 16 16 16 16 16 16 16 16 15 15 15 15 14 14 14 13 13 13
14 14 14 14 15 16 18 18 18 19 18 18 18 18 18 17 17 17 17 17 17 16 16 16 16 16 16 16 16 16 16 16 16 15 15 15 15 14 14 14 13 13 13 13
14 14 13 14 15 16 17 18 18 18 18 18 18 18 17 17 17 17 16 16 16 16 16 16 16 16 15 15 16 16 15 15 15 15 15 15 14 14 14 13 13 13 13 12
13 14 13 13 14 15 16 17 17 17 17 17 17 17 17 17 16 16 16 16 16 15 15 15 15 15 15 15 15 15 15 15 15 15 15 14 14 14 13 13 13 12 12 12
13 13 13 13 15 14 15 16 16 16 16 16 16 16 16 16 16 16 15 15 15 15 15 15 14 14 14 14 14 14 14 14 14 14 14 14 14 13 13 13 12 12 12 12
Wind_Speed
1 4 1 4 4 5 3 2 1 3 3 3 4 5 6 7 7 8 7 7 8 9 8 8 9 9 8 8 8 7 6 5 5 4 3 3 1 1 1 2 4 5 6 6
4 1 5 3 1 2 2 2 1 2 1 2 3 5 5 6 8 9 10 10 9 8 6 7 8 8 9 9 9 8 7 7 6 4 4 3 2 1 1 1 3 4 5 5
4 4 2 2 2 1 1 3 3 2 2 3 1 4 3 4 5 6 8 9 8 10 11 10 9 8 9 9 10 9 8 7 6 6 4 3 3 3 2 1 1 1 4 5
1 3 1 1 1 2 2 3 4 2 2 2 0 2 6 5 5 6 8 7 9 9 9 9 10 9 10 10 9 9 8 7 6 7 6 6 4 3 3 2 1 0 2 3
2 1 1 1 2 2 3 2 2 2 1 2 1 2 6 1 5 8 9 9 9 9 10 10 11 11 10 9 9 9 8 7 6 7 7 7 4 3 2 1 1 0 0 2
3 3 2 2 1 1 2 4 5 4 3 1 4 3 4 4 7 7 7 7 8 8 9 9 9 8 7 7 7 8 8 7 6 7 7 7 6 5 4 3 2 1 0 0
3 3 2 1 2 3 3 5 4 4 3 4 3 2 5 6 5 7 8 8 7 7 9 9 9 8 8 8 8 7 8 7 7 7 7 7 7 7 7 5 5 3 2 1
0 3 3 2 4 2 1 5 5 2 3 4 3 2 5 3 2 3 5 7 7 7 7 9 10 10 9 9 9 8 8 7 8 8 7 6 6 5 5 5 5 5 4 3
3 4 4 3 3 5 2 2 5 5 1 1 3 3 5 3 2 1 4 6 7 7 7 8 9 10 9 9 9 9 8 7 7 7 6 5 5 5 5 5 4 4 3 3
5 3 4 3 1 0 5 4 4 3 2 1 4 3 4 4 3 2 4 6 7 7 6 7 8 9 9 9 7 7 7 8 7 7 6 5 5 5 4 4 4 4 4 3
4 3 3 2 2 3 1 1 3 4 4 4 2 5 5 6 6 5 6 6 8 8 8 7 7 7 7 6 6 6 7 6 6 5 5 4 4 4 3 3 4 4 4 4
2 4 2 5 5 3 4 4 5 4 3 3 3 6 6 5 5 5 6 6 7 8 7 7 7 6 6 6 6 7 7 7 6 6 5 5 4 4 3 3 3 3 4 4
2 4 2 5 6 4 1 1 3 4 3 3 4 6 4 1 2 3 4 5 6 7 7 6 6 6 6 6 7 7 6 7 6 5 6 5 4 4 4 3 3 3 4 3
3 3 5 6 6 4 4 3 1 3 3 3 6 6 6 3 3 3 3 5 6 6 7 7 6 6 6 6 6 6 6 6 6 6 6 5 5 5 5 4 3 3 4 3
4 2 4 5 5 4 4 5 4 5 6 7 7 6 8 7 6 5 4 5 6 6 5 6 7 7 6 5 5 6 5 6 6 6 6 5 5 4 4 3 3 3 3 3
3 2 1 3 3 3 5 7 6 6 5 5 4 6 7 4 2 3 4 6 6 5 6 6 6 6 7 7 7 6 6 6 6 6 6 5 5 4 4 4 4 4 3 3
1 3 1 4 5 2 5 6 6 4 4 6 7 7 3 1 3 5 6 6 6 6 6 7 6 6 6 7 7 8 7 6 6 6 5 5 6 5 5 5 4 4 3 3
5 3 2 2 1 5 8 5 5 4 5 5 4 4 5 5 4 3 3 5 5 5 5 6 6 6 5 5 5 6 6 6 7 6 6 6 6 5 5 5 5 4 3 3
7 6 3 2 3 6 6 4 3 4 4 4 5 5 3 3 4 2 1 2 3 4 5 5 6 6 6 5 5 6 6 6 7 7 7 7 7 6 6 5 5 4 4 3
3 5 4 3 3 6 7 6 3 3 3 4 4 5 4 5 2 4 2 1 1 1 2 3 3 4 5 5 5 7 7 7 7 8 7 7 7 7 7 6 5 3 4 3
1 1 4 5 5 7 7 5 2 3 6 3 3 4 5 5 5 4 3 2 2 1 1 2 4 4 4 5 6 6 6 8 8 7 6 6 6 7 6 5 4 4 4 3
5 4 4 4 5 8 4 1 3 5 2 2 3 3 4 3 2 3 3 3 2 2 2 2 3 3 2 4 6 6 7 7 6 6 7 6 6 5 5 5 4 4 5 4
5 7 5 7 7 5 3 3 3 2 2 2 3 3 4 3 3 2 2 2 2 1 1 1 3 3 2 4 6 7 6 5 6 7 7 6 6 5 5 6 6 4 4 4
4 1 2 3 5 5 4 2 2 1 1 2 3 4 4 4 4 3 3 2 2 1 1 1 2 2 2 2 4 5 5 5 7 7 6 6 6 5 4 4 5 5 4 4
6 2 2 5 5 4 4 3 2 2 1 1 2 3 4 5 5 4 3 3 2 1 1 2 3 3 3 2 3 3 4 6 6 6 6 6 5 5 4 4 3 4 5 6
6 6 6 8 7 5 7 6 3 1 2 1 2 1 2 4 6 5 3 3 3 2 1 1 1 2 2 2 2 2 3 5 6 5 5 5 5 4 4 4 2 1 2 4
Wind_Direction
54 77 197 226 205 202 202 161 190 245 231 173 196 215 218 206 202 200 199 198 203 207 205 190 180 167 160 157 155 155 150 152 136 122 119 111 105 74 52 71 96 100 109 115
45 293 240 230 188 141 139 138 191 273 265 176 212 242 233 211 205 200 196 200 203 204 199 193 182 169 167 166 165 164 163 161 159 153 147 146 142 142 132 71 83 104 114 122
167 243 233 145 134 158 257 185 191 203 6 15 30 324 278 252 225 214 208 205 200 196 193 190 181 178 173 172 173 173 174 169 168 153 123 100 75 53 45 41 42 78 113 122
238 265 219 128 194 176 241 224 164 143 71 292 219 282 277 243 236 225 222 212 205 199 189 183 179 178 178 180 174 170 171 171 167 152 148 149 154 171 198 188 182 69 109 121
257 244 142 216 258 174 210 197 145 148 135 331 290 202 287 255 235 235 226 216 209 200 189 181 181 180 178 175 170 171 168 169 165 162 162 158 164 177 179 157 151 170 75 116
248 259 195 191 271 144 137 51 35 46 73 307 247 189 275 235 222 226 218 210 206 197 186 180 178 169 169 168 165 166 166 173 170 167 166 165 170 168 162 171 175 196 223 3
334 317 290 154 36 6 65 79 32 6 8 269 271 195 253 254 228 205 196 195 193 184 177 175 172 171 169 170 172 170 168 174 176 173 176 176 175 174 180 184 186 183 179 198
162 294 256 211 178 194 219 139 150 190 239 291 329 272 271 278 229 185 174 172 169 167 175 178 179 177 175 176 176 176 175 178 179 179 187 183 181 182 190 189 186 189 190 200
171 253 267 238 191 156 164 193 176 151 221 304 302 303 318 354 34 118 144 155 168 173 178 180 180 178 177 178 182 181 176 177 183 184 183 187 189 185 189 187 181 184 187 186
157 217 274 285 34 265 171 158 99 113 147 282 310 298 264 270 262 220 188 187 189 182 181 179 180 181 181 183 184 174 172 176 182 179 180 186 189 185 184 170 171 175 179 171
130 158 294 337 217 226 140 126 133 139 158 159 261 273 238 226 231 217 212 202 192 184 182 181 182 182 178 173 172 171 174 171 173 175 173 165 171 176 164 166 179 180 172 165
129 129 230 265 268 211 176 185 153 155 216 174 182 264 263 225 229 211 208 206 194 184 179 177 173 167 165 168 171 171 174 172 174 170 159 161 159 151 151 161 172 165 157 162
102 107 63 339 337 352 338 222 153 142 137 166 184 258 280 243 258 231 192 187 182 176 174 168 164 167 172 174 173 171 175 177 172 162 158 158 156 154 166 172 165 156 154 154
101 115 167 201 228 242 269 278 195 140 162 206 219 242 279 267 253 233 182 169 165 170 173 169 170 178 181 179 176 174 176 174 168 163 161 164 170 174 177 170 156 151 148 146
98 159 218 239 244 227 243 258 243 215 205 200 225 228 249 239 220 209 181 160 153 157 165 174 177 182 182 180 179 176 175 172 166 161 165 177 176 168 160 157 154 146 143 146
92 168 261 288 266 250 272 267 253 241 224 215 222 254 256 243 190 180 172 163 166 176 180 181 179 180 182 182 181 177 178 176 163 162 173 171 158 153 156 160 151 140 141 140
161 150 158 269 293 326 267 245 225 218 214 193 214 235 244 254 199 195 192 179 179 186 185 182 185 187 190 188 180 181 183 172 164 166 169 165 161 161 166 160 147 152 159 145
171 156 165 238 353 247 249 247 211 206 229 204 200 208 196 201 211 190 175 176 186 192 191 192 191 190 191 183 176 175 165 164 167 168 171 170 165 167 163 153 159 167 160 155
179 166 167 168 224 273 285 271 214 193 251 227 196 195 186 137 74 0 303 170 185 189 192 199 195 187 181 177 170 158 163 168 167 174 179 179 172 168 163 164 171 167 156 157
134 147 158 172 195 238 248 268 255 127 267 262 190 181 173 129 147 242 253 162 121 141 173 183 173 161 167 177 160 154 167 171 183 187 184 177 170 169 172 176 173 158 154 163
73 107 183 204 224 257 258 281 43 160 236 244 174 168 161 171 197 204 167 138 109 98 140 148 146 157 181 168 154 161 172 189 195 182 170 168 169 170 169 164 156 148 148 143
192 191 204 185 210 247 268 139 182 223 247 170 152 153 163 168 136 126 136 130 101 80 97 123 135 151 170 158 157 171 189 198 179 164 162 169 172 171 162 153 155 151 148 145
202 198 198 197 221 250 254 225 242 182 162 171 166 164 145 143 141 140 147 138 123 107 125 134 138 148 166 166 166 181 199 177 160 161 168 170 167 166 162 162 161 152 153 160
274 186 178 241 260 268 279 302 331 318 210 198 182 174 157 159 161 156 159 154 136 126 170 145 137 152 188 191 178 184 185 168 160 169 172 167 163 163 160 160 164 163 168 173
245 257 245 252 260 292 297 293 306 328 354 108 143 162 168 160 159 162 169 173 165 164 188 168 166 175 196 190 175 170 162 157 155 164 169 168 168 165 160 160 174 183 193 192
233 212 213 236 234 225 253 264 255 246 261 215 156 150 180 167 163 160 168 170 159 166 178 175 180 175 183 167 158 151 156 157 155 162 172 172 165 163 162 157 133 77 189 202
Height
1523 1528 1532 1529 1527 1528 1529 1532 1535 1531 1525 1527 1530 1530 1529 1528 1529 1530 1531 1532 1533 1534 1536 1538 1540 1542 1544 1546 1547 1549 1550 1551 1552 1553 1554 1554 1555 1555 1556 1556 1556 1556 1556 1556
1528 1530 1524 1522 1523 1525 1528 1533 1534 1529 1524 1527 1530 1529 1526 1526 1526 1527 1528 1529 1530 1532 1534 1536 1538 1541 1542 1544 1546 1547 1549 1550 1551 1552 1553 1554 1555 1555 1556 1556 1556 1556 1556 1556
1530 1526 1521 1522 1525 1527 1529 1531 1532 1531 1528 1527 1530 1534 1529 1524 1524 1525 1525 1526 1527 1529 1531 1534 1536 1539 1541 1543 1544 1546 1548 1549 1550 1552 1553 1553 1554 1555 1555 1556 1556 1556 1556 1556
1526 1522 1521 1523 1525 1526 1532 1524 1525 1528 1535 1541 1535 1547 1532 1525 1524 1522 1523 1524 1525 1527 1529 1532 1534 1537 1539 1541 1543 1545 1547 1548 1549 1550 1551 1552 1553 1554 1554 1555 1555 1556 1556 1556
1526 1522 1522 1525 1523 1522 1526 1522 1524 1527 1534 1541 1538 1544 1537 1526 1526 1521 1520 1520 1522 1524 1527 1529 1532 1534 1537 1540 1542 1544 1545 1547 1548 1549 1550 1551 1552 1553 1554 1554 1555 1555 1555 1556
1523 1520 1520 1521 1520 1520 1521 1525 1528 1533 1540 1550 1539 1543 1540 1528 1521 1517 1517 1518 1520 1522 1525 1528 1530 1533 1536 1538 1540 1542 1543 1545 1547 1548 1549 1550 1551 1552 1552 1553 1554 1554 1554 1555
1527 1522 1519 1519 1522 1523 1524 1538 1551 1553 1557 1552 1536 1538 1534 1518 1514 1513 1514 1515 1518 1521 1523 1526 1528 1531 1533 1536 1538 1540 1542 1543 1545 1546 1548 1549 1549 1550 1551 1552 1553 1553 1554 1554
1536 1536 1522 1518 1522 1526 1527 1534 1551 1560 1560 1552 1537 1538 1527 1513 1511 1511 1512 1514 1517 1520 1522 1524 1526 1528 1531 1534 1536 1538 1540 1542 1543 1545 1546 1547 1548 1549 1550 1551 1552 1552 1553 1553
1535 1534 1518 1516 1516 1520 1527 1531 1531 1544 1547 1553 1545 1533 1522 1513 1512 1512 1513 1514 1516 1518 1520 1522 1524 1527 1529 1532 1534 1536 1538 1540 1541 1543 1545 1546 1547 1548 1548 1550 1550 1551 1552 1552
1524 1532 1521 1517 1516 1517 1520 1524 1535 1544 1554 1558 1548 1540 1534 1520 1516 1514 1513 1514 1515 1517 1519 1521 1523 1525 1528 1530 1532 1534 1536 1538 1540 1541 1543 1544 1545 1546 1547 1548 1549 1549 1550 1551
1520 1530 1527 1522 1522 1523 1522 1526 1530 1540 1543 1555 1557 1546 1519 1516 1514 1513 1512 1513 1514 1515 1518 1519 1521 1524 1526 1529 1531 1533 1534 1536 1538 1540 1541 1542 1543 1544 1545 1546 1547 1548 1549 1549
1519 1529 1534 1526 1516 1513 1517 1521 1528 1541 1544 1544 1550 1543 1512 1511 1510 1510 1510 1511 1513 1514 1516 1518 1520 1523 1525 1527 1529 1530 1532 1534 1536 1538 1539 1541 1542 1543 1544 1545 1545 1546 1547 1548
1519 1529 1540 1537 1529 1520 1519 1518 1521 1529 1537 1544 1548 1538 1511 1510 1510 1509 1509 1510 1511 1513 1515 1517 1519 1521 1523 1525 1527 1529 1530 1532 1534 1536 1538 1539 1540 1541 1542 1543 1544 1545 1545 1546
1517 1527 1536 1540 1533 1525 1522 1518 1518 1526 1538 1540 1536 1528 1516 1512 1510 1509 1509 1510 1511 1513 1514 1516 1518 1519 1521 1523 1525 1527 1529 1531 1533 1534 1536 1537 1538 1539 1541 1542 1542 1543 1544 1544
1517 1527 1525 1523 1519 1518 1518 1517 1517 1521 1524 1530 1525 1521 1514 1510 1508 1508 1509 1510 1511 1512 1513 1515 1516 1517 1519 1521 1523 1525 1527 1529 1530 1532 1534 1535 1537 1538 1539 1540 1541 1542 1542 1543
1518 1524 1524 1523 1517 1516 1517 1514 1513 1514 1515 1517 1517 1516 1507 1506 1507 1507 1508 1509 1510 1511 1512 1513 1515 1516 1517 1519 1520 1522 1524 1526 1528 1530 1531 1533 1535 1536 1537 1538 1539 1540 1540 1541
1520 1524 1529 1531 1521 1519 1522 1511 1510 1510 1509 1511 1515 1511 1506 1506 1506 1507 1507 1507 1508 1508 1510 1511 1513 1514 1515 1517 1518 1520 1522 1524 1526 1527 1529 1531 1532 1534 1535 1536 1537 1538 1538 1539
1518 1523 1530 1531 1528 1532 1516 1503 1502 1505 1504 1504 1504 1504 1504 1504 1504 1505 1506 1506 1506 1507 1508 1509 1510 1512 1513 1515 1517 1518 1520 1522 1523 1525 1527 1528 1530 1531 1533 1534 1535 1536 1536 1537
1510 1518 1528 1533 1532 1524 1510 1502 1501 1504 1505 1501 1501 1501 1502 1503 1505 1506 1506 1506 1506 1506 1507 1508 1509 1510 1511 1512 1514 1516 1518 1519 1521 1523 1524 1526 1528 1529 1530 1531 1533 1534 1534 1535
1508 1512 1523 1529 1530 1528 1511 1498 1496 1500 1507 1499 1498 1499 1500 1502 1508 1506 1505 1505 1505 1505 1506 1506 1507 1508 1509 1510 1511 1513 1515 1517 1518 1520 1522 1523 1525 1526 1528 1529 1530 1532 1532 1533
1514 1517 1522 1525 1526 1517 1501 1496 1496 1510 1507 1498 1497 1497 1499 1499 1501 1502 1502 1503 1503 1503 1504 1505 1505 1506 1507 1508 1509 1510 1512 1514 1516 1518 1519 1521 1523 1524 1525 1527 1528 1529 1530 1531
1514 1517 1520 1522 1524 1517 1497 1496 1500 1500 1495 1495 1496 1497 1498 1498 1499 1500 1501 1501 1501 1502 1502 1503 1503 1504 1505 1506 1507 1508 1510 1511 1513 1515 1517 1518 1520 1522 1523 1524 1525 1527 1527 1528
1508 1508 1509 1510 1509 1498 1495 1495 1495 1494 1494 1494 1495 1496 1497 1497 1498 1499 1499 1500 1500 1501 1501 1501 1502 1502 1504 1504 1505 1506 1507 1509 1510 1512 1514 1515 1517 1519 1520 1521 1522 1523 1524 1525
1502 1500 1502 1503 1499 1495 1494 1493 1493 1494 1494 1493 1494 1494 1495 1495 1496 1497 1498 1498 1499 1499 1499 1500 1500 1501 1501 1502 1503 1504 1505 1506 1508 1509 1511 1512 1514 1516 1517 1518 1519 1520 1521 1521
1501 1499 1500 1500 1496 1495 1493 1492 1492 1492 1492 1492 1492 1493 1493 1493 1494 1495 1496 1497 1497 1498 1498 1498 1499 1499 1499 1500 1501 1502 1503 1504 1505 1507 1508 1510 1511 1513 1514 1515 1516 1517 1518 1519
1495 1496 1498 1496 1492 1493 1491 1490 1491 1491 1491 1491 1491 1491 1492 1492 1492 1493 1494 1495 1495 1496 1497 1497 1497 1497 1497 1498 1499 1500 1501 1502 1502 1503 1505 1506 1508 1509 1510 1512 1513 1514 1515 1516